Lid_Strength_Index
3 3 3 3 3 3 3 2 2 3 3 3 3 3 2 2 3 6 9 5 4 -1 -0 2 2 2 3 5 4 6 10 12 11 10 10 8 8 7 6 6 5 4 5 4 2
4 4 4 4 4 4 4 3 2 2 2 3 3 3 2 2 6 7 3 -1 -2 -2 5 6 6 4 6 6 6 8 11 11 9 8 9 8 8 7 7 6 6 5 4 3 3
4 3 4 4 4 4 4 4 2 2 2 2 3 2 2 3 7 6 -2 -2 -2 -1 5 6 6 4 7 7 7 9 10 9 8 7 7 7 6 5 7 8 6 6 5 5 7
4 4 4 4 4 4 4 4 3 2 2 3 3 3 2 6 10 5 -2 -3 -3 2 5 6 6 7 9 9 6 9 7 7 7 6 6 7 6 7 7 6 4 4 4 4 6
4 4 4 4 4 4 4 4 4 3 3 3 3 3 6 9 8 3 -2 -2 2 5 6 6 7 8 9 8 8 8 7 6 6 6 6 5 7 7 7 5 3 3 4 5 5
3 4 4 5 5 4 5 5 5 4 3 4 3 2 6 10 5 0 2 3 4 5 6 6 7 7 8 8 8 7 7 7 6 6 6 7 8 6 6 4 4 4 5 5 5
3 3 3 4 5 5 5 5 5 5 3 3 3 3 7 7 4 2 4 5 4 4 6 5 6 7 8 7 6 7 8 7 7 6 7 6 9 9 6 5 5 5 4 4 4
3 3 3 4 5 5 5 5 5 4 3 3 2 5 10 6 5 6 6 4 4 4 5 4 6 8 8 7 7 8 9 11 8 7 7 7 12 8 5 6 6 5 5 4 4
3 3 3 3 4 5 5 5 4 3 2 2 5 8 9 3 5 4 4 4 4 4 5 4 6 8 8 10 12 10 13 12 10 7 8 9 11 7 6 6 6 6 5 5 5
3 3 4 4 4 5 6 5 4 4 3 3 4 8 6 6 4 4 4 4 5 5 6 7 8 10 11 12 14 13 12 12 12 9 9 10 10 7 6 6 7 6 6 5 5
3 3 4 4 4 5 6 9 10 10 10 10 8 7 6 4 4 6 5 5 5 7 10 9 10 12 10 10 10 10 10 12 11 8 10 11 10 9 7 7 7 7 6 6 5
3 3 4 4 4 5 8 9 9 10 12 8 8 7 6 5 7 6 5 6 7 9 8 10 12 9 9 9 9 9 11 12 10 8 10 11 11 9 8 8 7 7 6 6 5
4 4 4 4 5 7 9 8 9 10 12 9 8 8 7 6 7 6 6 6 8 9 10 11 9 7 9 10 10 11 11 12 12 10 9 11 12 11 8 7 7 6 6 5 5
4 4 4 5 8 9 9 7 9 9 12 10 9 7 7 7 7 5 5 6 8 9 9 10 9 9 10 10 10 13 9 9 10 12 15 10 17 12 10 9 8 7 6 6 5
4 4 4 5 10 9 8 8 7 7 16 8 8 7 8 7 7 6 4 6 8 9 9 9 9 9 10 9 9 11 8 9 10 12 13 13 15 13 10 11 9 7 6 6 5
4 4 5 7 9 8 8 9 8 11 14 10 8 9 10 9 8 6 6 5 6 8 9 9 7 7 9 8 8 7 9 10 11 13 17 14 14 14 12 10 9 7 6 5 5
4 4 6 6 10 8 8 8 12 14 8 11 11 10 11 10 9 8 8 9 11 12 12 10 9 8 7 8 8 9 12 15 16 17 18 12 14 13 9 8 8 7 6 6 5
5 6 7 6 8 7 9 9 14 10 9 7 10 10 11 10 10 9 9 10 9 10 12 12 12 9 7 8 10 11 12 14 18 19 17 12 16 13 8 7 7 6 6 6 5
6 8 8 7 6 7 10 13 12 10 7 8 10 12 12 11 10 10 10 10 9 9 11 12 11 8 7 7 7 10 12 11 14 15 17 15 13 10 8 8 7 7 7 6 6
9 8 7 5 5 7 13 13 10 6 6 8 10 11 13 13 12 11 11 8 8 8 9 10 12 9 7 7 8 9 9 13 13 18 20 17 16 15 11 10 8 8 7 6 6
9 10 7 5 6 9 17 14 10 7 6 8 9 10 10 10 12 12 10 8 7 8 8 10 11 11 9 10 11 11 12 12 12 14 19 19 16 10 10 9 9 7 7 7 7
11 13 7 6 10 12 12 11 9 8 6 7 8 8 8 8 10 11 10 9 6 7 9 9 11 13 11 8 8 9 11 11 14 16 15 16 15 8 9 8 8 7 7 7 6
13 12 6 6 12 13 10 9 8 8 6 7 8 7 7 9 11 9 8 6 6 6 8 9 11 15 13 11 9 10 10 10 12 13 15 16 15 8 8 8 7 7 6 7 6
12 11 8 8 9 10 10 9 9 6 7 6 8 7 8 9 8 10 9 7 6 6 7 7 11 12 14 12 10 11 10 10 12 14 14 14 13 10 9 9 7 7 7 7 7
11 11 9 11 9 9 9 8 8 8 7 7 8 8 9 11 10 10 9 8 6 6 7 8 12 12 11 9 9 10 10 10 12 11 14 12 13 11 9 9 8 7 7 6 6
10 9 9 10 9 10 10 10 8 8 8 9 9 7 8 10 10 10 9 9 9 8 9 9 12 11 12 9 9 11 10 10 10 10 11 11 12 9 8 8 7 7 6 7 6
9 9 8 10 10 10 10 8 8 7 6 8 8 8 9 8 7 8 7 8 8 9 10 10 11 12 14 11 11 13 11 10 10 10 10 13 11 8 8 8 8 7 7 6 6